TimeCST,TemperatureF,Dew PointF,Humidity,Sea Level PressureIn,VisibilityMPH,Wind Direction,Wind SpeedMPH,Gust SpeedMPH,PrecipitationIn,Events,Conditions,WindDirDegrees,DateUTC
12:15 AM,37.4,35.6,93,30.18,0.2,WSW,3.5,-,N/A,,Overcast,240,2012-11-21 06:15:00
12:35 AM,35.6,35.6,100,30.18,0.2,SSW,3.5,-,N/A,,Overcast,200,2012-11-21 06:35:00
12:55 AM,35.6,33.8,93,30.18,0.2,WSW,3.5,-,N/A,,Overcast,240,2012-11-21 06:55:00
1:15 AM,35.6,35.6,100,30.18,0.2,Calm,Calm,-,N/A,,Overcast,0,2012-11-21 07:15:00
1:35 AM,35.6,33.8,93,30.18,0.2,Calm,Calm,-,N/A,,Overcast,0,2012-11-21 07:35:00
1:55 AM,35.6,33.8,93,30.17,0.2,SSE,3.5,-,N/A,,Overcast,160,2012-11-21 07:55:00
2:15 AM,35.6,33.8,93,30.17,0.2,SE,4.6,-,N/A,,Overcast,140,2012-11-21 08:15:00
2:35 AM,35.6,33.8,93,30.17,0.2,South,4.6,-,N/A,,Overcast,170,2012-11-21 08:35:00
2:55 AM,33.8,33.8,100,30.16,0.2,SSE,5.8,-,N/A,,Overcast,150,2012-11-21 08:55:00
3:15 AM,35.6,33.8,93,30.16,0.2,South,4.6,-,N/A,,Overcast,170,2012-11-21 09:15:00
3:35 AM,35.6,33.8,93,30.17,0.2,SSW,5.8,-,N/A,,Overcast,210,2012-11-21 09:35:00
3:55 AM,35.6,33.8,93,30.17,0.2,SSW,5.8,-,N/A,,Overcast,210,2012-11-21 09:55:00
4:15 AM,35.6,33.8,93,30.18,0.2,WSW,5.8,-,N/A,,Overcast,240,2012-11-21 10:15:00
4:35 AM,35.6,35.6,100,30.18,0.2,South,3.5,-,N/A,,Overcast,190,2012-11-21 10:35:00
4:55 AM,35.6,35.6,100,30.17,0.2,South,8.1,-,N/A,,Overcast,180,2012-11-21 10:55:00
5:15 AM,35.6,33.8,93,30.18,0.2,South,5.8,-,N/A,,Overcast,170,2012-11-21 11:15:00
5:35 AM,35.6,33.8,93,30.17,0.2,South,6.9,-,N/A,,Overcast,170,2012-11-21 11:35:00
5:55 AM,35.6,33.8,93,30.17,0.2,South,4.6,-,N/A,,Overcast,170,2012-11-21 11:55:00
6:15 AM,35.6,33.8,93,30.17,0.2,South,8.1,-,N/A,,Overcast,190,2012-11-21 12:15:00
6:35 AM,35.6,33.8,93,30.17,0.2,South,6.9,-,N/A,,Overcast,180,2012-11-21 12:35:00
6:55 AM,35.6,33.8,93,30.17,0.2,South,8.1,-,N/A,,Overcast,170,2012-11-21 12:55:00
7:15 AM,35.6,33.8,93,30.17,0.2,South,8.1,-,N/A,,Overcast,170,2012-11-21 13:15:00
7:35 AM,35.6,33.8,93,30.18,0.2,South,6.9,-,N/A,,Overcast,170,2012-11-21 13:35:00
7:55 AM,35.6,33.8,93,30.18,0.2,SSE,6.9,-,N/A,,Overcast,160,2012-11-21 13:55:00
8:15 AM,35.6,35.6,100,30.18,0.2,South,10.4,-,N/A,,Overcast,180,2012-11-21 14:15:00
8:35 AM,37.4,35.6,93,30.18,0.2,South,10.4,-,N/A,,Overcast,180,2012-11-21 14:35:00
8:55 AM,37.4,35.6,93,30.18,0.2,South,10.4,-,N/A,,Overcast,190,2012-11-21 14:55:00
9:15 AM,37.4,37.4,100,30.18,0.2,South,10.4,-,N/A,,Overcast,190,2012-11-21 15:15:00
9:35 AM,39.2,37.4,93,30.17,0.2,South,12.7,-,N/A,,Overcast,170,2012-11-21 15:35:00
9:55 AM,41.0,37.4,87,30.17,0.2,South,11.5,-,N/A,,Overcast,190,2012-11-21 15:55:00
10:15 AM,41.0,39.2,93,30.17,0.2,South,13.8,-,N/A,,Overcast,180,2012-11-21 16:15:00
10:35 AM,41.0,41.0,100,30.17,0.5,South,12.7,-,N/A,,Overcast,180,2012-11-21 16:35:00
10:55 AM,42.8,41.0,93,30.16,1.2,South,13.8,-,N/A,,Overcast,180,2012-11-21 16:55:00
11:15 AM,42.8,42.8,100,30.14,2.5,South,12.7,-,N/A,,Overcast,180,2012-11-21 17:15:00
11:35 AM,44.6,42.8,93,30.13,4.0,South,13.8,-,N/A,,Mostly Cloudy,170,2012-11-21 17:35:00
11:55 AM,46.4,44.6,93,30.12,4.0,South,13.8,-,N/A,,Scattered Clouds,180,2012-11-21 17:55:00
12:15 PM,48.2,46.4,93,30.11,7.0,South,15.0,-,N/A,,Clear,180,2012-11-21 18:15:00
12:35 PM,50.0,46.4,87,30.09,7.0,South,16.1,-,N/A,,Clear,180,2012-11-21 18:35:00
12:55 PM,50.0,44.6,82,30.09,7.0,South,16.1,-,N/A,,Clear,180,2012-11-21 18:55:00
1:15 PM,51.8,44.6,76,30.09,7.0,South,12.7,-,N/A,,Clear,180,2012-11-21 19:15:00
1:55 PM,53.6,44.6,72,30.07,10.0,South,13.8,-,N/A,,Clear,190,2012-11-21 19:55:00
2:15 PM,53.6,44.6,72,30.06,10.0,South,13.8,-,N/A,,Clear,180,2012-11-21 20:15:00
2:35 PM,55.4,44.6,67,30.06,10.0,South,13.8,-,N/A,,Clear,190,2012-11-21 20:35:00
2:55 PM,53.6,44.6,72,30.05,7.0,South,11.5,-,N/A,,Clear,180,2012-11-21 20:55:00
3:15 PM,55.4,44.6,67,30.05,10.0,South,12.7,-,N/A,,Clear,170,2012-11-21 21:15:00
3:35 PM,53.6,44.6,72,30.04,7.0,South,12.7,-,N/A,,Clear,170,2012-11-21 21:35:00
3:55 PM,53.6,44.6,72,30.04,7.0,South,11.5,-,N/A,,Clear,170,2012-11-21 21:55:00
4:15 PM,53.6,44.6,72,30.04,10.0,SSE,10.4,-,N/A,,Clear,160,2012-11-21 22:15:00
4:35 PM,51.8,44.6,76,30.04,7.0,SSE,6.9,-,N/A,,Clear,150,2012-11-21 22:35:00
4:55 PM,50.0,42.8,76,30.04,7.0,SSE,8.1,-,N/A,,Clear,150,2012-11-21 22:55:00
5:15 PM,50.0,42.8,76,30.04,10.0,SSE,9.2,-,N/A,,Clear,160,2012-11-21 23:15:00
5:35 PM,48.2,42.8,82,30.03,10.0,SSE,9.2,-,N/A,,Clear,150,2012-11-21 23:35:00
5:55 PM,50.0,41.0,71,30.03,10.0,SSE,10.4,-,N/A,,Clear,160,2012-11-21 23:55:00
6:15 PM,50.0,41.0,71,30.03,10.0,SSE,15.0,-,N/A,,Clear,160,2012-11-22 00:15:00
6:35 PM,50.0,41.0,71,30.03,7.0,South,16.1,-,N/A,,Clear,170,2012-11-22 00:35:00
6:55 PM,50.0,41.0,71,30.03,10.0,SSE,8.1,-,N/A,,Clear,160,2012-11-22 00:55:00
7:15 PM,48.2,41.0,76,30.03,10.0,SSE,4.6,-,N/A,,Clear,150,2012-11-22 01:15:00
7:35 PM,50.0,41.0,71,30.03,10.0,SSE,10.4,-,N/A,,Clear,160,2012-11-22 01:35:00
7:55 PM,50.0,42.8,76,30.03,10.0,South,11.5,-,N/A,,Clear,170,2012-11-22 01:55:00
8:15 PM,50.0,42.8,76,30.03,10.0,South,11.5,-,N/A,,Clear,170,2012-11-22 02:15:00
8:35 PM,50.0,42.8,76,30.02,10.0,South,13.8,18.4,N/A,,Clear,170,2012-11-22 02:35:00
8:55 PM,50.0,42.8,76,30.02,10.0,South,16.1,-,N/A,,Clear,170,2012-11-22 02:55:00
9:15 PM,48.2,42.8,82,30.02,10.0,South,13.8,-,N/A,,Clear,170,2012-11-22 03:15:00
9:35 PM,48.2,42.8,82,30.02,10.0,South,12.7,-,N/A,,Clear,170,2012-11-22 03:35:00
9:55 PM,46.4,42.8,87,30.02,10.0,South,15.0,-,N/A,,Clear,180,2012-11-22 03:55:00
10:15 PM,46.4,42.8,87,30.01,10.0,South,15.0,-,N/A,,Clear,170,2012-11-22 04:15:00
10:35 PM,46.4,42.8,87,30.01,10.0,South,15.0,-,N/A,,Clear,170,2012-11-22 04:35:00
10:55 PM,46.4,42.8,87,30.01,10.0,SSE,10.4,-,N/A,,Clear,160,2012-11-22 04:55:00
11:15 PM,46.4,42.8,87,30.01,10.0,SSE,10.4,-,N/A,,Clear,160,2012-11-22 05:15:00
11:35 PM,44.6,41.0,87,30.01,7.0,South,10.4,-,N/A,,Clear,180,2012-11-22 05:35:00
11:55 PM,44.6,41.0,87,30.00,10.0,South,12.7,-,N/A,,Clear,180,2012-11-22 05:55:00